Location: Maiden
(35.5760°N, 81.2120°W)
Time: 01:00:11
(UTC-04:00)

A-11 Canister half - Pass Details

Date: 11 August 2020
Orbit: 1527 x 1682 km, 47.3° (Epoch: 25 September)

Event Time Altitude Azimuth Distance (km) Brightness Sun altitude
Rises 20:41:46 0° 299° (WNW) 4,904 14.2 -5.3°
Reaches altitude 10° 20:45:18 10° 291° (WNW) 3,896 13.0 -6.0°
Maximum altitude 20:53:55 35° 231° (SW) 2,394 10.3 -7.6°
Drops below altitude 10° 21:02:18 10° 170° (S) 3,776 10.7 -9.1°
Sets 21:05:41 0° 161° (SSE) 4,736 11.1 -9.8°
